Weather History for KGNV - January, 2014

Change the Weather History Date:

Friday, January 24, 2014

  Actual Average Record
Temperature  
Mean Temperature 44 °F 55 °F  
Max Temperature 52 °F 67 °F 85 °F (1937)
Min Temperature 35 °F 43 °F 18 °F (1960)
Degree Days  
Heating Degree Days 21 11  
Month to date heating degree days 347 272  
Since 1 July heating degree days 612 729  
Cooling Degree Days 0 0  
Month to date cooling degree days 10 0  
Year to date cooling degree days 10 0  
Moisture  
Dew Point 18 °F    
Average Humidity 41    
Maximum Humidity 64    
Minimum Humidity 18    
Precipitation  
Precipitation 0.00 in 0.13 in 2.56 in (1914)
Month to date precipitation 4.59 2.48  
Year to date precipitation 4.59 2.48  
Snow  
Snow 0.00 in 0.00 in 0.00 in ()
Month to date snowfall 0.0 0.0  
Since 1 July snowfall 0.0 0.0  
Snow Depth 0.00 in    
Sea Level Pressure  
Sea Level Pressure 30.44 in    
Wind  
Wind Speed 8 mph (NNE)    
Max Wind Speed 15 mph    
Max Gust Speed 20 mph    
Visibility 10 miles    
Events      
T = Trace of Precipitation, MM = Missing Value Source: NWS Daily Summary

Daily Weather History Graph

Daily Weather History Graph

Search for Another Location

Airport or City:

Trip Planner

Search our weather history database for the weather conditions in past years. The results will help you decide how hot, cold, wet, or windy it might be!

Date:

Astronomy

Jan. 24, 2014 Rise Set
Actual Time 7:22 AM EST 6:00 PM EST
Civil Twilight 6:57 AM EST 6:25 PM EST
Nautical Twilight 6:28 AM EST 6:54 PM EST
Astronomical Twilight 6:00 AM EST 7:22 PM EST
Moon 12:55 AM EST (1/24) 12:13 PM EST (1/24)
Length of Visible Light 11h 27m
Length of Day
10h 37m
Last Quarter, 45% of the Moon is Illuminated
Jan 24
Last Quarter
Jan 30
New
Feb 6
First Quarter
Feb 14
Full
Feb 22
Last Quarter

Hourly Weather History & Observations

Time (EST) Temp. Windchill Dew Point Humidity Pressure Visibility Wind Dir Wind Speed Gust Speed Precip Events Conditions
12:53 AM 37.9 °F 32.7 °F 25.0 °F 60% 30.41 in 10.0 mi NNW 6.9 mph - N/A   Clear
1:53 AM 36.0 °F 33.3 °F 25.0 °F 64% 30.42 in 10.0 mi NNW 3.5 mph - N/A   Clear
2:53 AM 36.0 °F 32.1 °F 25.0 °F 64% 30.43 in 10.0 mi NW 4.6 mph - N/A   Clear
3:53 AM 39.0 °F 33.4 °F 21.9 °F 50% 30.44 in 10.0 mi NNW 8.1 mph - N/A   Clear
4:53 AM 39.0 °F 31.8 °F 19.9 °F 46% 30.48 in 10.0 mi North 11.5 mph - N/A   Clear
5:53 AM 37.9 °F 30.9 °F 19.0 °F 47% 30.50 in 10.0 mi North 10.4 mph - N/A   Clear
6:53 AM 37.0 °F 29.8 °F 16.0 °F 42% 30.51 in 10.0 mi North 10.4 mph - N/A   Clear
7:53 AM 36.0 °F 29.0 °F 17.1 °F 46% 30.52 in 10.0 mi North 9.2 mph - N/A   Clear
8:53 AM 36.0 °F 29.6 °F 16.0 °F 44% 30.53 in 10.0 mi NNE 8.1 mph - N/A   Clear
9:53 AM 37.9 °F 30.9 °F 15.1 °F 39% 30.52 in 10.0 mi NNE 10.4 mph - N/A   Clear
10:53 AM 43.0 °F 37.7 °F 12.0 °F 28% 30.53 in 10.0 mi NNE 9.2 mph - N/A   Clear
11:53 AM 46.9 °F - 8.1 °F 21% 30.50 in 10.0 mi North 10.4 mph 17.3 mph N/A   Clear
12:53 PM 48.9 °F - 8.1 °F 19% 30.45 in 10.0 mi NNE 9.2 mph - N/A   Clear
1:53 PM 50.0 °F - 8.1 °F 18% 30.41 in 10.0 mi North - - N/A   Clear
2:53 PM 51.1 °F - 10.0 °F 19% 30.38 in 10.0 mi NNE 10.4 mph 16.1 mph N/A   Clear
3:53 PM 50.0 °F - 10.0 °F 20% 30.38 in 10.0 mi ENE 9.2 mph - N/A   Clear
4:53 PM 48.0 °F - 10.9 °F 22% 30.39 in 10.0 mi ENE 11.5 mph - N/A   Clear
5:53 PM 43.0 °F 37.7 °F 15.1 °F 32% 30.40 in 10.0 mi NE 9.2 mph - N/A   Clear
6:53 PM 42.1 °F 36.6 °F 19.0 °F 40% 30.40 in 10.0 mi ENE 9.2 mph - N/A   Overcast
7:53 PM 41.0 °F 35.2 °F 24.1 °F 51% 30.41 in 10.0 mi ENE 9.2 mph - N/A   Overcast
8:53 PM 39.9 °F 35.8 °F 25.0 °F 55% 30.40 in 10.0 mi East 5.8 mph - N/A   Overcast
9:53 PM 39.9 °F 36.7 °F 27.0 °F 60% 30.38 in 10.0 mi ENE 4.6 mph - N/A   Mostly Cloudy
10:53 PM 39.0 °F 33.4 °F 28.0 °F 65% 30.36 in 10.0 mi ENE 8.1 mph - N/A   Overcast
11:53 PM 39.0 °F 36.8 °F 28.0 °F 65% 30.34 in 10.0 mi NE 3.5 mph - N/A   Overcast